Location: *
(37.6218°N, 107.6227°W)
Time: 14:21:15
(UTC+00:00)

Daily predictions for brighter satellites

Satellite Brightness Start Highest point End
(mag) Time Altitude Azimuth Time Altitude Azimuth Time Altitude Azimuth
COSMOS 2428 4.4 12:04:09 15° NW 12:04:09 15° NW 12:06:57 10° NNW
BREEZE-M DEB (TANK) 3.0 12:04:55 29° WSW 12:05:06 29° SW 12:07:20 10° SSE
CZ-4B R/B 3.9 12:02:06 10° N 12:06:02 58° WNW 12:10:09 10° SSW
Cosmos 389 Rocket 3.5 12:07:44 26° NW 12:07:44 26° NW 12:09:59 10° NNW
GP-B 3.4 12:04:06 10° S 12:08:30 72° E 12:12:56 10° N
Cosmos 1295 Rocket 4.5 12:03:33 10° S 12:09:45 89° E 12:15:55 10° N
Cosmos 1606 Rocket 3.4 12:10:11 10° NNW 12:14:28 65° W 12:18:44 10° S
Cosmos 1850 Rocket 4.4 12:17:22 10° S 12:22:29 65° ESE 12:27:36 10° NNE
H-2A R/B 3.9 12:21:15 10° NNW 12:24:08 18° WNW 12:24:46 18° W
MOS 1-B 4.3 12:20:56 10° NNE 12:26:46 84° WNW 12:32:34 10° SSW
Okean 1-7 Rocket 3.8 12:26:51 10° SSW 12:31:07 48° W 12:35:28 10° N
SL-8 R/B 4.5 12:26:41 10° SW 12:31:20 52° SE 12:35:59 10° ENE
Cosmos 1356 3.4 12:28:01 10° NNW 12:31:26 60° W 12:34:50 10° S
Cosmos 1954 Rocket 4.4 12:26:56 10° SW 12:31:50 40° WNW 12:36:44 10° N
Meteor 1-24 Rocket 4.4 12:27:21 10° S 12:32:56 62° E 12:38:46 10° NNE
Cosmos 1626 Rocket 4.3 12:30:20 10° S 12:34:32 56° E 12:38:46 10° NNE
Cosmos 1140 Rocket 4.4 12:32:58 10° WSW 12:37:16 26° WNW 12:41:34 10° N
Cosmos 1943 Rocket 4.2 12:32:28 10° N 12:37:22 29° ENE 12:42:15 10° ESE
COSMO-SKYMED 1 2.5 12:34:47 10° S 12:39:06 75° WSW 12:43:27 10° NNW
SL-16 R/B 2.4 12:33:51 10° SW 12:39:18 49° WNW 12:44:49 10° NNE
Cosmos 1437 Rocket 2.9 12:37:10 10° SSW 12:40:50 46° WNW 12:44:29 10° N
FENGYUN 3A 3.9 12:36:19 10° NNE 12:41:47 77° ESE 12:47:12 10° S
Meteor 1-16 Rocket 4.3 12:39:40 10° NNW 12:44:46 48° W 12:49:56 10° SSW
KORONAS-FOTON 3.7 12:41:03 10° SSW 12:44:47 70° W 12:48:34 10° N
METEOR-M 4.1 12:43:11 10° NNE 12:48:34 86° WNW 12:53:53 10° SSW
Cosmos 2278 Rocket 3.5 12:49:16 10° WNW 12:53:00 18° W 12:56:43 10° SW
CZ-4B R/B 4.4 12:50:58 10° NNW 12:53:21 16° WNW 12:55:41 10° WSW
Cosmos 2228 3.9 12:50:15 10° NNW 12:53:46 26° W 12:57:17 10° SW
Cosmos 2297 3.8 12:48:57 10° NNW 12:54:38 64° WSW 13:00:16 10° S
Cosmos 1726 Rocket 4.4 12:51:26 10° NNW 12:55:04 27° W 12:58:42 10° SSW
Milstar 3 Cent rocket 3.5 12:53:18 10° SW 12:57:35 26° S 13:01:32 10° ESE
USA 234 4.0 12:52:06 10° S 12:57:53 34° SW 13:03:43 10° WNW
PSLV R/B 2.9 12:55:31 10° W 12:58:06 52° NNW 13:00:42 10° ENE
Cosmos 1953 4.0 12:56:04 10° NW 12:58:16 14° W 13:00:29 10° WSW
Cosmos 2218 Rocket 4.1 12:56:40 10° SSW 13:03:02 74° W 13:09:24 10° N
